Tracking 30289 objects as of 29-Apr-2025
HD Live streaming from Space Station
objects crossing your sky now

STARLINK-5620

Track STARLINK-5620 now!
10-day predictions
STARLINK-5620 is classified as:


NORAD ID: 55414
Int'l Code: 2023-014Z
Perigee: 577.0 km
Apogee: 581.3 km
Inclination: 70.0 °
Period: 96.1 minutes
Semi major axis: 6950 km
RCS: Unknown
Launch date: January 31, 2023
Source: United States (US)
Launch site: AIR FORCE WESTERN TEST RANGE (AFWTR)
Your satellite tracking list
Your tracking list is empty




NASA's NSSDC Master Catalog

Two Line Element Set (TLE):
1 55414U 23014Z   25118.84437861  .00000462  00000-0  46484-4 0  9999
2 55414  69.9993 158.2034 0003099 269.1738  90.9066 14.98331531124405
Source of the keplerian elements: AFSPC